[[{"header":{"parameterUnit":"m.s-1","parameterCategory":2,"la1":30.2992,"la2":30.254,"lo1":-89.0895,"lo2":-89.0443,"dy":0.0025,"dx":0.0025,"nx":19,"ny":19,"refTime":"2026-03-14T09:00:00:Z","depth":"0","parameterNumber":2,"parameterNumberName":"U-component_of_CURRENTS"},"data":[0,0,0,0.4548,0.4548,0.4532,0.4531,0.4525,0.4525,0,0,0,0,0,0,0,0,0,0,0,0.4546,0.4546,0.4548,0.4548,0.4532,0.4531,0.4525,0.4525,0,0,0,0,0,0,0,0,0,0,0,0.4546,0.4546,0.4547,0.4548,0.4532,0.4531,0.4525,0.4527,0,0,0,0,0,0,0,0,0,0,0.4538,0.4543,0.4546,0.4547,0.4548,0.4532,0.4531,0.4526,0.4527,0.4545,0,0.4557,0,0.4559,0.4528,0.4528,0,0,0,0.452,0.4542,0.4548,0.4547,0.4549,0.4532,0.4531,0.4526,0.4527,0.4546,0.4557,0.4557,0.4559,0.4528,0.4528,0.4617,0.4618,0,0,0.4521,0.453,0.4547,0.4548,0.4565,0.4532,0.4531,0.4526,0.453,0.4557,0.4557,0.4558,0.4528,0.4528,0.4617,0.4617,0,0,0,0.4543,0.4531,0.4534,0.4548,0.4554,0.4532,0.4531,0.453,0.4534,0.4557,0.4558,0.4528,0.4529,0.4616,0.4617,0.4714,0,0,0,0.4542,0.4546,0.4535,0.4538,0.4555,0.4541,0.4535,0.4534,0.4534,0.4558,0.4528,0.4529,0.4615,0.4616,0.471,0.4728,0,0,0,0.4543,0.4545,0.4551,0.4539,0.4547,0.4541,0.4543,0.4533,0.4537,0.4528,0.4529,0.4615,0.4616,0.4706,0.4723,0.4885,0,0,0,0.454,0.4567,0.4552,0.4579,0.4547,0.4567,0.4542,0.4547,0.4543,0.4529,0.4615,0.4617,0.4705,0.4719,0.4879,0.4943,0.4974,0,0,0.4574,0.4571,0.4586,0.4573,0.4598,0.4565,0.4613,0.4595,0.4577,0.4611,0.4613,0.4711,0.4722,0.4883,0.5039,0.5067,0,0,0,0.4596,0.4607,0.4612,0.4621,0.4626,0.4649,0.4636,0.4652,0.4686,0.4589,0.4718,0.4721,0.4821,0.4847,0.487,0.5112,0.4624,0.4624,0.4624,0.4633,0.4632,0.4654,0.4663,0.4682,0.4709,0.4747,0.477,0.4746,0.4788,0.4807,0.4996,0.5023,0.5041,0.529,0.4826,0.4826,0.4826,0.4827,0.467,0.4667,0.4682,0.4701,0.4729,0.4766,0.4851,0.487,0.4998,0.4909,0.5004,0.4953,0.5073,0.5328,0.4833,0.4832,0.4831,0.483,0.483,0.4661,0.466,0.4678,0.4706,0.4744,0.4793,0.4911,0.4996,0.5069,0.5155,0.5247,0.5246,0.5471,0.524,0.5241,0.5241,0.5242,0.5243,0.5243,0.4634,0.4655,0.4653,0.4705,0.4706,0.4791,0.4963,0.509,0.5301,0.5353,0.5354,0.5574,0.5123,0.5107,0.5256,0.5254,0.5252,0.5251,0.525,0.4583,0.4599,0.4597,0.46,0.4653,0.4709,0.4938,0.5246,0.5449,0.5559,0.5901,0.5491,0.5479,0.5459,0.5452,0.5682,0.5682,0.5682,0.5682,0.4521,0.4545,0.4495,0.4487,0.454,0.4651,0.4855,0.5208,0.5774,0.6089,0.6219,0.616,0.6131,0.6153,0.6118,0.6122,0.6517,0.6519,0.652,0.4454,0.4463,0.4386,0.441,0.4441,0.4576,0.4721,0.5147,0.6074,0.6578,0.6563,0.6527,0.6454,0.6389,0.6418,0.6349,0.6349,0,0]},{"header":{"parameterUnit":"m.s-1","parameterCategory":2,"la1":30.2992,"la2":30.254,"lo1":-89.0895,"lo2":-89.0443,"dy":0.0025,"dx":0.0025,"nx":19,"ny":19,"refTime":"2026-03-14T09:00:00:Z","depth":"0","parameterNumber":3,"parameterNumberName":"V-component_of_CURRENTS"},"data":[0,0,0,-0.0044,-0.0044,-0.004,-0.004,-0.0145,-0.0146,0,0,0,0,0,0,0,0,0,0,0,-0.0046,-0.0045,-0.0044,-0.0043,-0.004,-0.004,-0.0145,-0.0146,0,0,0,0,0,0,0,0,0,0,0,-0.0046,-0.0045,-0.0045,-0.0043,-0.004,-0.004,-0.0145,-0.0124,0,0,0,0,0,0,0,0,0,0,-0.0116,-0.0105,-0.0045,-0.0045,-0.0043,-0.004,-0.004,-0.0122,-0.0126,-0.0173,0,-0.0156,0,-0.0149,-0.0154,-0.0155,0,0,0,-0.0061,-0.0102,-0.0088,-0.0045,-0.0043,-0.004,-0.0046,-0.0124,-0.0128,-0.0178,-0.0158,-0.0161,-0.0151,-0.0155,-0.0156,-0.0156,-0.0155,0,0,-0.0061,-0.0066,-0.0085,-0.009,-0.0024,-0.0046,-0.0046,-0.0125,-0.0132,-0.0158,-0.0163,-0.0152,-0.0156,-0.0157,-0.0157,-0.0156,0,0,0,-0.005,-0.0066,-0.0048,-0.0086,-0.0074,-0.0046,-0.0045,-0.0129,-0.0118,-0.0164,-0.0154,-0.0157,-0.0158,-0.0158,-0.0156,0.0035,0,0,0,-0.0051,-0.0058,-0.0048,-0.0054,-0.0071,-0.0088,-0.0048,-0.0113,-0.0121,-0.0153,-0.0157,-0.0159,-0.0159,-0.0157,0.0028,0.0138,0,0,0,-0.0049,-0.0058,-0.0048,-0.0053,-0.0042,-0.0086,-0.0081,-0.0114,-0.0115,-0.0155,-0.016,-0.0159,-0.0157,0.0021,0.0126,0.0213,0,0,0,-0.0068,-0.0004,-0.0048,0.0033,-0.0041,0.0038,-0.008,-0.006,-0.0078,-0.0157,-0.0158,-0.0156,0.0019,0.0118,0.0206,0.0386,0.0436,0,0,0.0015,0.0005,0.0062,0.0025,0.0151,0.0035,0.0129,0.0036,-0.0069,-0.0147,-0.0146,0.003,0.0125,0.0212,0.0508,0.0555,0,0,0,0.0093,0.0139,0.0169,0.0225,0.0243,0.0272,0.0174,0.012,0.006,-0.0068,0.002,0.0073,0.0122,0.0214,0.0251,0.0122,-0.0147,-0.0147,-0.0147,0.0197,0.0238,0.0358,0.0412,0.0452,0.042,0.0421,0.0322,0.0188,0.0188,0.0221,0.041,0.0511,0.054,0.0405,0.0195,0.0195,0.0196,0.0196,0.0375,0.0464,0.0512,0.0637,0.0657,0.0706,0.0644,0.0555,0.0529,0.0385,0.0422,0.0402,0.0593,0.0433,0.0209,0.0206,0.0205,0.0204,0.0203,0.0456,0.0513,0.0583,0.0768,0.0884,0.0882,0.1032,0.0902,0.0722,0.0767,0.0809,0.0807,0.0672,0.0768,0.0769,0.0769,0.077,0.0771,0.0771,0.0513,0.0598,0.075,0.0916,0.1045,0.1204,0.1251,0.1273,0.1191,0.1056,0.1055,0.0745,0.0583,0.0568,0.0786,0.0783,0.0781,0.078,0.0779,0.065,0.0675,0.0914,0.1061,0.1387,0.1705,0.1712,0.1814,0.1729,0.171,0.1222,0.1188,0.1142,0.1111,0.1107,0.1451,0.1451,0.1451,0.1452,0.073,0.0764,0.1103,0.1372,0.1701,0.1944,0.2403,0.2443,0.1981,0.171,0.1421,0.1311,0.1289,0.1239,0.1206,0.1196,0.1555,0.1555,0.1554,0.0852,0.0937,0.12,0.1465,0.1851,0.2264,0.279,0.3124,0.2316,0.1532,0.121,0.1206,0.1002,0.0979,0.0855,0.0818,0.0784,0,0]}],[{"header":{"parameterUnit":"m.s-1","parameterCategory":2,"la1":30.2992,"la2":30.254,"lo1":-89.0895,"lo2":-89.0443,"dy":0.0025,"dx":0.0025,"nx":19,"ny":19,"refTime":"2026-03-14T09:00:00:Z","depth":"2","parameterNumber":2,"parameterNumberName":"U-component_of_CURRENTS"},"data":[0,0,0,0.4519,0.4519,0.4498,0.4497,0.4484,0.4485,0,0,0,0,0,0,0,0,0,0,0,0.4519,0.4519,0.4519,0.4519,0.4498,0.4497,0.4484,0.4485,0,0,0,0,0,0,0,0,0,0,0,0.4519,0.4519,0.4519,0.4519,0.4498,0.4497,0.4484,0.449,0,0,0,0,0,0,0,0,0,0,0.4506,0.4512,0.4519,0.4519,0.4519,0.4498,0.4497,0.449,0.449,0.4507,0,0.4519,0,0.4519,0.4487,0.4487,0,0,0,0.4491,0.4512,0.4516,0.452,0.452,0.4498,0.4499,0.4489,0.4489,0.4507,0.4519,0.4518,0.4519,0.4487,0.4487,0.457,0.4571,0,0,0.4492,0.4502,0.4517,0.4517,0.4535,0.45,0.4499,0.4489,0.4493,0.4519,0.4518,0.4518,0.4487,0.4487,0.457,0.4571,0,0,0,0.4514,0.4503,0.4505,0.4517,0.4522,0.45,0.4499,0.4492,0.4497,0.4518,0.4518,0.4487,0.4488,0.4569,0.457,0.4668,0,0,0,0.4514,0.4518,0.4506,0.451,0.4523,0.4506,0.4503,0.4497,0.4496,0.4518,0.4487,0.4488,0.4568,0.457,0.4664,0.4682,0,0,0,0.4516,0.4518,0.4524,0.4511,0.4516,0.4506,0.4508,0.4496,0.4498,0.4487,0.4488,0.4568,0.4569,0.466,0.4677,0.4835,0,0,0,0.4514,0.454,0.4524,0.455,0.4517,0.4532,0.4507,0.4509,0.4503,0.4487,0.4568,0.457,0.4659,0.4673,0.483,0.4833,0.4859,0,0,0.4547,0.4545,0.4559,0.4545,0.4566,0.4531,0.4574,0.4555,0.4535,0.4566,0.4567,0.4665,0.4676,0.4834,0.4926,0.495,0,0,0,0.4569,0.4579,0.4583,0.4589,0.4591,0.461,0.4595,0.461,0.4642,0.4546,0.4671,0.4674,0.4772,0.4762,0.478,0.4578,0.4577,0.4577,0.4577,0.4605,0.4603,0.4622,0.4629,0.4645,0.4667,0.4703,0.4724,0.4699,0.4741,0.4759,0.4945,0.4933,0.4948,0.4777,0.4777,0.4778,0.4778,0.4778,0.4642,0.4638,0.465,0.4667,0.469,0.4724,0.4804,0.4822,0.4948,0.486,0.4953,0.4868,0.4975,0.4786,0.4785,0.4784,0.4783,0.4782,0.4782,0.4627,0.4627,0.4645,0.4674,0.4708,0.4752,0.4865,0.4948,0.5019,0.5104,0.5154,0.5151,0.5031,0.5188,0.5188,0.5189,0.519,0.519,0.5191,0.4599,0.4622,0.4621,0.4673,0.4673,0.4753,0.4919,0.5042,0.5223,0.5254,0.5255,0.5084,0.5071,0.5056,0.5203,0.5201,0.5199,0.5198,0.5197,0.4549,0.4568,0.4567,0.4569,0.462,0.4536,0.4862,0.5139,0.5358,0.5447,0.5371,0.5363,0.5345,0.5327,0.5318,0.5526,0.5526,0.5526,0.5526,0.4489,0.4514,0.4469,0.4459,0.4508,0.4437,0.4425,0.4566,0.4938,0.5028,0.5046,0.4884,0.4887,0.4829,0.4823,0.4797,0.4869,0.4867,0.4864,0.4429,0.4438,0.436,0.4383,0.4408,0.4225,0.3906,0.3736,0.4217,0.4813,0.4665,0.5533,0.5345,0.5328,0.5276,0.5252,0.5226,0,0]},{"header":{"parameterUnit":"m.s-1","parameterCategory":2,"la1":30.2992,"la2":30.254,"lo1":-89.0895,"lo2":-89.0443,"dy":0.0025,"dx":0.0025,"nx":19,"ny":19,"refTime":"2026-03-14T09:00:00:Z","depth":"2","parameterNumber":3,"parameterNumberName":"V-component_of_CURRENTS"},"data":[0,0,0,-0.0023,-0.0023,-0.0018,-0.0018,-0.0121,-0.0123,0,0,0,0,0,0,0,0,0,0,0,-0.0025,-0.0025,-0.0024,-0.0023,-0.0018,-0.0018,-0.0121,-0.0123,0,0,0,0,0,0,0,0,0,0,0,-0.0026,-0.0025,-0.0024,-0.0023,-0.0018,-0.0018,-0.0121,-0.0102,0,0,0,0,0,0,0,0,0,0,-0.0094,-0.0084,-0.0025,-0.0024,-0.0022,-0.0018,-0.0018,-0.01,-0.0103,-0.015,0,-0.0133,0,-0.0125,-0.013,-0.0131,0,0,0,-0.004,-0.0081,-0.0067,-0.0024,-0.0022,-0.0018,-0.0025,-0.0101,-0.0105,-0.0154,-0.0134,-0.0137,-0.0127,-0.0131,-0.0132,-0.0131,-0.013,0,0,-0.004,-0.0045,-0.0063,-0.0068,-0.0003,-0.0025,-0.0025,-0.0102,-0.0109,-0.0134,-0.0139,-0.0129,-0.0132,-0.0133,-0.0131,-0.013,0,0,0,-0.0029,-0.0045,-0.0027,-0.0065,-0.0052,-0.0024,-0.0024,-0.0106,-0.0095,-0.014,-0.013,-0.0133,-0.0134,-0.0132,-0.0131,0.0059,0,0,0,-0.003,-0.0037,-0.0027,-0.0033,-0.0049,-0.0066,-0.0026,-0.009,-0.0098,-0.0129,-0.0133,-0.0135,-0.0133,-0.0132,0.0051,0.0162,0,0,0,-0.0029,-0.0038,-0.0028,-0.0033,-0.0021,-0.0064,-0.0059,-0.0091,-0.0092,-0.0131,-0.0135,-0.0134,-0.0132,0.0045,0.0149,0.0235,0,0,0,-0.0048,0.0016,-0.0028,0.0054,-0.0021,0.006,-0.0058,-0.0037,-0.0055,-0.0133,-0.0133,-0.0131,0.0043,0.0141,0.0227,0.0386,0.0433,0,0,0.0035,0.0025,0.0082,0.0045,0.0172,0.0057,0.0151,0.0059,-0.0045,-0.0122,-0.0121,0.0054,0.0148,0.0233,0.0507,0.0552,0,0,0,0.0113,0.0159,0.0189,0.0246,0.0265,0.0293,0.0197,0.0143,0.0083,-0.0044,0.0044,0.0097,0.0145,0.0224,0.0259,-0.0121,-0.0121,-0.0122,-0.0122,0.0216,0.0258,0.0378,0.0433,0.0473,0.0442,0.0443,0.0344,0.0212,0.0211,0.0244,0.0431,0.0518,0.0546,0.0217,0.0218,0.0218,0.0219,0.0219,0.0395,0.0484,0.0532,0.0658,0.0677,0.0727,0.0665,0.0576,0.0549,0.0407,0.0443,0.041,0.0596,0.0234,0.0231,0.0229,0.0228,0.0227,0.0226,0.0477,0.0534,0.0603,0.0788,0.0903,0.0902,0.1051,0.0921,0.0741,0.0785,0.0813,0.081,0.0556,0.0785,0.0786,0.0787,0.0788,0.0788,0.0789,0.0534,0.0618,0.077,0.0935,0.1064,0.1222,0.1268,0.129,0.1197,0.1056,0.1055,0.0621,0.0603,0.0587,0.0803,0.08,0.0799,0.0797,0.0796,0.0671,0.0695,0.0933,0.108,0.1405,0.1687,0.1717,0.1807,0.1727,0.1701,0.1191,0.1177,0.1129,0.1099,0.1094,0.1429,0.1429,0.1429,0.1429,0.075,0.0783,0.112,0.139,0.1719,0.1915,0.2276,0.2187,0.1866,0.1604,0.1595,0.1499,0.1471,0.1432,0.1394,0.1388,0.1801,0.1801,0.1801,0.087,0.0954,0.1218,0.1483,0.1868,0.2199,0.2522,0.2408,0.1927,0.1804,0.1543,0.1477,0.1306,0.1274,0.1177,0.1131,0.1107,0,0]}],[{"header":{"parameterUnit":"m.s-1","parameterCategory":2,"la1":30.2992,"la2":30.254,"lo1":-89.0895,"lo2":-89.0443,"dy":0.0025,"dx":0.0025,"nx":19,"ny":19,"refTime":"2026-03-14T09:00:00:Z","depth":"4","parameterNumber":2,"parameterNumberName":"U-component_of_CURRENTS"},"data":[0,0,0,0.2077,0.2085,0.2467,0.2469,0.2815,0.2818,0,0,0,0,0,0,0,0,0,0,0,0.1946,0.1949,0.2076,0.2085,0.2467,0.2469,0.2815,0.2818,0,0,0,0,0,0,0,0,0,0,0,0.1945,0.1948,0.1951,0.2087,0.2466,0.2469,0.2814,0.2564,0,0,0,0,0,0,0,0,0,0,0.2212,0.2113,0.1947,0.1951,0.2089,0.2466,0.2469,0.2554,0.258,0.2598,0,0.2665,0,0.2743,0.2837,0.2838,0,0,0,0.2098,0.2092,0.2188,0.1952,0.2092,0.2465,0.2298,0.257,0.2599,0.2632,0.2671,0.2685,0.2748,0.2839,0.284,0.313,0.3131,0,0,0.2076,0.2022,0.2168,0.2206,0.22,0.2286,0.231,0.2589,0.2622,0.2672,0.2694,0.2754,0.2841,0.2843,0.3129,0.313,0,0,0,0.2008,0.2007,0.2101,0.219,0.2268,0.2296,0.2324,0.2611,0.2641,0.2699,0.2758,0.2842,0.2846,0.3127,0.3129,0.3214,0,0,0,0.1996,0.1967,0.2091,0.2063,0.2264,0.2465,0.2339,0.2622,0.2657,0.2756,0.2842,0.2848,0.3126,0.3128,0.3209,0.3237,0,0,0,0.1927,0.196,0.2005,0.2059,0.2219,0.2463,0.2512,0.2632,0.2691,0.2838,0.2849,0.3125,0.3128,0.3205,0.323,0.3375,0,0,0,0.1856,0.1925,0.2004,0.2117,0.2215,0.2448,0.2511,0.2711,0.2841,0.2844,0.3126,0.3129,0.3204,0.3226,0.3369,0.2919,0,0,0,0.189,0.1929,0.1995,0.2074,0.2268,0.2395,0.2627,0.2822,0.2879,0.3023,0.3033,0.3211,0.323,0.3374,0.307,0,0,0,0,0.1971,0.2019,0.2093,0.2237,0.241,0.2611,0.2803,0.2898,0.3098,0.2968,0.3239,0.3248,0.3336,0.3057,0.3141,0.3141,0.3141,0.314,0.314,0.1925,0.204,0.217,0.2343,0.2506,0.2784,0.2954,0.3118,0.3165,0.3267,0.3338,0.353,0.3236,0.3366,0.3367,0.3367,0.3367,0.3368,0.3368,0.1951,0.2019,0.2212,0.2374,0.2604,0.2819,0.3134,0.3235,0.3495,0.3448,0.3531,0.3188,0.3377,0.3375,0.3374,0.3373,0.3372,0.3372,0.3371,0.1874,0.1925,0.2057,0.2303,0.2576,0.2871,0.3157,0.3403,0.3566,0.3679,0.3448,0.3621,0.3594,0.3762,0.3763,0.3763,0.3764,0.3765,0.3765,0.1722,0.1861,0.197,0.2247,0.2419,0.2746,0.3208,0.3391,0.3636,0.3507,0.3742,0.3664,0.3651,0.3619,0.3777,0.3775,0.3774,0.3772,0.3772,0.1614,0.1684,0.182,0.1967,0.2334,0.2544,0.3028,0.3293,0.3465,0.3462,0.3428,0.3442,0.3384,0.3379,0.3334,0.3415,0.3409,0.3404,0,0.151,0.1562,0.1708,0.186,0.2072,0.2418,0.2591,0.2878,0.3106,0.2979,0.3437,0.3387,0.3396,0.3316,0.3304,0.3241,0,0,0,0.1447,0.1508,0.1553,0.172,0.1922,0.2244,0.2628,0.263,0.306,0.3105,0.3275,0.3309,0.358,0.3813,0.3759,0.3744,0.369,0,0]},{"header":{"parameterUnit":"m.s-1","parameterCategory":2,"la1":30.2992,"la2":30.254,"lo1":-89.0895,"lo2":-89.0443,"dy":0.0025,"dx":0.0025,"nx":19,"ny":19,"refTime":"2026-03-14T09:00:00:Z","depth":"4","parameterNumber":3,"parameterNumberName":"V-component_of_CURRENTS"},"data":[0,0,0,0.0445,0.0444,0.0371,0.037,0.021,0.0209,0,0,0,0,0,0,0,0,0,0,0,0.0472,0.0472,0.0445,0.0444,0.0371,0.037,0.021,0.0209,0,0,0,0,0,0,0,0,0,0,0,0.0472,0.0472,0.0472,0.0444,0.0371,0.037,0.0211,0.0278,0,0,0,0,0,0,0,0,0,0,0.0355,0.0399,0.0472,0.0472,0.0444,0.0371,0.037,0.0281,0.0273,0.023,0,0.0235,0,0.0224,0.0198,0.0198,0,0,0,0.0424,0.0406,0.0387,0.0472,0.0443,0.0371,0.0398,0.0277,0.0268,0.0219,0.0232,0.0227,0.0221,0.0197,0.0196,0.0129,0.013,0,0,0.0429,0.0449,0.0394,0.0382,0.0443,0.0401,0.0396,0.0272,0.0268,0.0232,0.0223,0.0219,0.0196,0.0195,0.0129,0.0129,0,0,0,0.0453,0.0453,0.0438,0.0388,0.0384,0.0399,0.0394,0.0274,0.027,0.0221,0.0217,0.0195,0.0193,0.0128,0.0129,0.0263,0,0,0,0.0455,0.0468,0.044,0.045,0.0387,0.0338,0.0398,0.0279,0.0264,0.0217,0.0195,0.0192,0.0128,0.0129,0.0258,0.0342,0,0,0,0.0472,0.0469,0.0468,0.0452,0.0429,0.034,0.0328,0.0275,0.0262,0.0197,0.0191,0.0127,0.0128,0.0254,0.0334,0.036,0,0,0,0.0485,0.051,0.0469,0.0497,0.043,0.0423,0.0329,0.0303,0.0261,0.0194,0.0128,0.0129,0.0253,0.0328,0.0355,0.0404,0,0,0,0.0529,0.0516,0.0535,0.0497,0.0528,0.0431,0.0443,0.0342,0.0256,0.0159,0.0157,0.026,0.0333,0.0359,0.0463,0,0,0,0,0.0557,0.0577,0.0577,0.0584,0.0554,0.0535,0.0436,0.0384,0.0308,0.0238,0.0243,0.0285,0.0297,0.0311,0.0134,0.0134,0.0134,0.0134,0.0133,0.0639,0.0635,0.0682,0.0675,0.0667,0.0598,0.0568,0.0475,0.0378,0.0369,0.0381,0.0479,0.0499,0.0349,0.035,0.0351,0.0351,0.0352,0.0352,0.0732,0.0769,0.077,0.0814,0.0788,0.0783,0.0691,0.0625,0.0569,0.0483,0.0486,0.0436,0.0365,0.0362,0.036,0.0359,0.0358,0.0357,0.0356,0.0795,0.0817,0.0847,0.0921,0.0957,0.091,0.0958,0.0855,0.071,0.072,0.0683,0.0562,0.0563,0.0705,0.0706,0.0706,0.0707,0.0707,0.0707,0.0847,0.0883,0.0963,0.1032,0.1094,0.1155,0.1119,0.1085,0.0937,0.0856,0.0759,0.0597,0.0586,0.0582,0.0715,0.0714,0.0713,0.0712,0.0711,0.0917,0.0941,0.107,0.115,0.1304,0.1354,0.134,0.1237,0.1194,0.1085,0.0896,0.0885,0.0836,0.0819,0.082,0.103,0.1031,0.1032,0,0.096,0.0981,0.1163,0.1317,0.1462,0.1478,0.1482,0.141,0.1196,0.1181,0.1149,0.0942,0.093,0.0877,0.0863,0.0869,0,0,0,0.1002,0.1061,0.1197,0.1362,0.1528,0.1513,0.1486,0.1435,0.1235,0.119,0.1062,0.1054,0.0914,0.0739,0.0635,0.0621,0.0609,0,0]}]]